When you browse on this site, cookies collect data to enhance your experience and personalize the content and advertising you see.
Visit our Privacy Policy to learn more. By continuing to use the site, you agree to this use of cookies and data.
  • en France
  • Liste des pays
  • À 7 jours
  • Température de l'eau
  • Carte météo
  • Widgets météo
  • user-avatar
    Se connecter

    Météo par heure à Louboumbashi

    Ce jour, 26 Août, Lundi

    Heure Température Précipitation Vent Pression Humidité
    00:00 +30°C° 0 mm 3 m/s 720 mmHg 62%
    01:00 +29°C° 0 mm 4 m/s 720 mmHg 66%
    02:00 +28°C° 0 mm 4 m/s 719 mmHg 70%
    03:00 +28°C° 0 mm 4 m/s 719 mmHg 72%
    04:00 +27°C° 0 mm 4 m/s 720 mmHg 74%
    05:00 +27°C° 0 mm 4 m/s 720 mmHg 76%
    06:00 +27°C° 0.7 mm 4 m/s 720 mmHg 76%
    07:00 +27°C° 0.7 mm 4 m/s 721 mmHg 75%
    08:00 +27°C° 0.7 mm 4 m/s 721 mmHg 74%
    09:00 +29°C° 0 mm 4 m/s 721 mmHg 68%
    10:00 +30°C° 0 mm 5 m/s 721 mmHg 62%
    11:00 +33°C° 0 mm 5 m/s 721 mmHg 56%
    12:00 +34°C° 0 mm 4 m/s 720 mmHg 52%
    13:00 +35°C° 0 mm 4 m/s 720 mmHg 48%
    14:00 +36°C° 0 mm 3 m/s 719 mmHg 44%
    15:00 +35°C° 0 mm 3 m/s 719 mmHg 46%
    16:00 +35°C° 0 mm 4 m/s 719 mmHg 47%
    17:00 +35°C° 0 mm 4 m/s 718 mmHg 49%
    18:00 +34°C° 0 mm 4 m/s 719 mmHg 52%
    19:00 +33°C° 0 mm 4 m/s 719 mmHg 55%
    20:00 +32°C° 0 mm 5 m/s 719 mmHg 59%
    21:00 +30°C° 0.2 mm 5 m/s 720 mmHg 62%
    22:00 +30°C° 0.2 mm 5 m/s 720 mmHg 65%
    23:00 +29°C° 0.2 mm 5 m/s 721 mmHg 68%

    Demain, 27 Août, Mardi

    Heure Température Précipitation Vent Pression Humidité
    00:00 +28°C° 1.7 mm 5 m/s 721 mmHg 72%
    01:00 +27°C° 1.7 mm 5 m/s 721 mmHg 75%
    02:00 +26°C° 1.7 mm 4 m/s 720 mmHg 79%
    03:00 +26°C° 0.2 mm 3 m/s 720 mmHg 78%
    04:00 +26°C° 0.2 mm 2 m/s 720 mmHg 78%
    05:00 +26°C° 0.2 mm 2 m/s 720 mmHg 78%
    06:00 +26°C° 0 mm 2 m/s 721 mmHg 77%
    07:00 +27°C° 0 mm 2 m/s 721 mmHg 76%
    08:00 +27°C° 0 mm 3 m/s 722 mmHg 75%
    09:00 +28°C° 0.3 mm 3 m/s 722 mmHg 70%
    10:00 +30°C° 0.3 mm 4 m/s 722 mmHg 64%
    11:00 +32°C° 0.3 mm 5 m/s 722 mmHg 58%
    12:00 +32°C° 0 mm 5 m/s 721 mmHg 56%
    13:00 +33°C° 0 mm 5 m/s 721 mmHg 53%
    14:00 +34°C° 0 mm 6 m/s 720 mmHg 51%
    15:00 +33°C° 0 mm 5 m/s 720 mmHg 54%
    16:00 +32°C° 0 mm 4 m/s 719 mmHg 56%
    17:00 +30°C° 0 mm 4 m/s 719 mmHg 59%
    18:00 +30°C° 0 mm 3 m/s 719 mmHg 61%
    19:00 +30°C° 0 mm 2 m/s 720 mmHg 63%
    20:00 +29°C° 0 mm 1 m/s 720 mmHg 65%
    21:00 +29°C° 0 mm 1 m/s 721 mmHg 66%
    22:00 +29°C° 0 mm 1 m/s 721 mmHg 66%
    23:00 +29°C° 0 mm 1 m/s 721 mmHg 67%

    Après-demain, 28 Août, Mercredi

    Heure Température Précipitation Vent Pression Humidité
    00:00 +28°C° 0 mm 2 m/s 721 mmHg 69%
    01:00 +28°C° 0 mm 2 m/s 720 mmHg 71%
    02:00 +27°C° 0 mm 2 m/s 720 mmHg 74%
    03:00 +27°C° 0 mm 2 m/s 720 mmHg 76%
    04:00 +26°C° 0 mm 2 m/s 720 mmHg 78%
    05:00 +26°C° 0 mm 2 m/s 720 mmHg 80%
    06:00 +27°C° 0 mm 2 m/s 721 mmHg 77%
    07:00 +27°C° 0 mm 3 m/s 721 mmHg 75%
    08:00 +28°C° 0 mm 3 m/s 721 mmHg 73%
    09:00 +29°C° 0 mm 3 m/s 721 mmHg 67%
    10:00 +30°C° 0 mm 3 m/s 721 mmHg 61%
    11:00 +33°C° 0 mm 4 m/s 721 mmHg 55%
    12:00 +34°C° 0 mm 4 m/s 721 mmHg 52%
    13:00 +34°C° 0 mm 4 m/s 720 mmHg 49%
    14:00 +35°C° 0 mm 4 m/s 719 mmHg 45%
    15:00 +35°C° 0 mm 4 m/s 719 mmHg 45%
    16:00 +35°C° 0 mm 3 m/s 718 mmHg 45%
    17:00 +35°C° 0 mm 2 m/s 718 mmHg 44%
    18:00 +34°C° 0 mm 2 m/s 718 mmHg 47%
    19:00 +34°C° 0 mm 2 m/s 719 mmHg 50%
    20:00 +32°C° 0 mm 2 m/s 719 mmHg 53%
    21:00 +31°C° 0.1 mm 2 m/s 719 mmHg 56%
    22:00 +30°C° 0.1 mm 2 m/s 719 mmHg 59%
    23:00 +30°C° 0.1 mm 3 m/s 720 mmHg 62%

    29 Août, Jeudi

    Heure Température Précipitation Vent Pression Humidité
    00:00 +29°C° 0 mm 3 m/s 719 mmHg 64%
    01:00 +29°C° 0 mm 3 m/s 719 mmHg 66%
    02:00 +28°C° 0 mm 3 m/s 719 mmHg 68%
    03:00 +28°C° 0 mm 3 m/s 719 mmHg 70%
    04:00 +28°C° 0 mm 4 m/s 719 mmHg 71%
    05:00 +27°C° 0 mm 4 m/s 719 mmHg 73%
    06:00 +28°C° 0 mm 4 m/s 719 mmHg 72%
    07:00 +28°C° 0 mm 4 m/s 720 mmHg 70%
    08:00 +29°C° 0 mm 4 m/s 721 mmHg 69%
    09:00 +30°C° 0 mm 4 m/s 720 mmHg 64%
    10:00 +33°C° 0 mm 4 m/s 720 mmHg 58%
    11:00 +34°C° 0 mm 4 m/s 720 mmHg 53%
    12:00 +35°C° 0 mm 4 m/s 720 mmHg 49%
    13:00 +36°C° 0 mm 3 m/s 719 mmHg 46%
    14:00 +37°C° 0 mm 3 m/s 718 mmHg 42%
    15:00 +37°C° 0 mm 2 m/s 718 mmHg 41%
    16:00 +37°C° 0 mm 2 m/s 718 mmHg 40%
    17:00 +36°C° 0 mm 1 m/s 717 mmHg 40%
    18:00 +36°C° 0 mm 2 m/s 717 mmHg 42%
    19:00 +35°C° 0 mm 3 m/s 717 mmHg 45%
    20:00 +35°C° 0 mm 4 m/s 718 mmHg 48%
    21:00 +34°C° 0.2 mm 3 m/s 718 mmHg 52%
    22:00 +33°C° 0.2 mm 3 m/s 718 mmHg 56%
    23:00 +31°C° 0.2 mm 2 m/s 718 mmHg 60%

    30 Août, Vendredi

    Heure Température Précipitation Vent Pression Humidité
    00:00 +30°C° 0.2 mm 3 m/s 718 mmHg 63%
    01:00 +29°C° 0.2 mm 4 m/s 718 mmHg 66%
    02:00 +29°C° 0.2 mm 4 m/s 718 mmHg 70%
    03:00 +28°C° 0.3 mm 4 m/s 718 mmHg 73%
    04:00 +28°C° 0.3 mm 3 m/s 718 mmHg 76%
    05:00 +27°C° 0.3 mm 3 m/s 718 mmHg 79%
    06:00 +27°C° 0 mm 4 m/s 719 mmHg 78%
    07:00 +28°C° 0 mm 4 m/s 719 mmHg 76%
    08:00 +28°C° 0 mm 5 m/s 719 mmHg 75%
    09:00 +30°C° 0 mm 4 m/s 720 mmHg 68%
    10:00 +31°C° 0 mm 3 m/s 720 mmHg 62%
    11:00 +32°C° 0 mm 2 m/s 720 mmHg 55%
    12:00 +34°C° 0 mm 2 m/s 719 mmHg 51%
    13:00 +35°C° 0 mm 2 m/s 718 mmHg 47%
    14:00 +36°C° 0 mm 2 m/s 718 mmHg 43%
    15:00 +36°C° 0 mm 2 m/s 717 mmHg 42%
    16:00 +35°C° 0 mm 1 m/s 717 mmHg 41%
    17:00 +36°C° 0 mm 1 m/s 717 mmHg 40%
    18:00 +34°C° 0.1 mm 1 m/s 717 mmHg 44%
    19:00 +34°C° 0.1 mm 2 m/s 717 mmHg 49%
    20:00 +33°C° 0.1 mm 3 m/s 717 mmHg 53%
    21:00 +31°C° 0.1 mm 3 m/s 718 mmHg 57%
    22:00 +30°C° 0.1 mm 4 m/s 718 mmHg 61%
    23:00 +30°C° 0.1 mm 4 m/s 718 mmHg 65%

    31 Août, Samedi

    Heure Température Précipitation Vent Pression Humidité
    00:00 +29°C° 0.3 mm 4 m/s 718 mmHg 66%
    01:00 +29°C° 0.3 mm 3 m/s 717 mmHg 67%
    02:00 +28°C° 0.3 mm 2 m/s 717 mmHg 69%
    03:00 +28°C° 0.8 mm 2 m/s 718 mmHg 72%
    04:00 +27°C° 0.8 mm 2 m/s 718 mmHg 76%
    05:00 +27°C° 0.8 mm 3 m/s 718 mmHg 79%
    06:00 +27°C° 0.9 mm 3 m/s 719 mmHg 77%
    07:00 +28°C° 0.9 mm 2 m/s 719 mmHg 74%
    08:00 +28°C° 0.9 mm 2 m/s 720 mmHg 72%
    09:00 +30°C° 0 mm 3 m/s 720 mmHg 66%
    10:00 +32°C° 0 mm 4 m/s 720 mmHg 60%
    11:00 +33°C° 0 mm 5 m/s 720 mmHg 54%
    12:00 +34°C° 0 mm 4 m/s 719 mmHg 50%
    13:00 +35°C° 0 mm 4 m/s 718 mmHg 47%
    14:00 +35°C° 0 mm 3 m/s 718 mmHg 44%
    15:00 +35°C° 0 mm 3 m/s 718 mmHg 44%
    16:00 +35°C° 0 mm 3 m/s 717 mmHg 44%
    17:00 +35°C° 0 mm 3 m/s 717 mmHg 45%
    18:00 +34°C° 0 mm 4 m/s 718 mmHg 48%
    19:00 +33°C° 0 mm 4 m/s 718 mmHg 52%
    20:00 +32°C° 0 mm 5 m/s 718 mmHg 56%
    21:00 +30°C° 0 mm 4 m/s 718 mmHg 60%
    22:00 +30°C° 0 mm 4 m/s 719 mmHg 63%
    23:00 +29°C° 0 mm 4 m/s 719 mmHg 67%
    Voir plus